Meadow Lake, CO

7:12 PM MDT on April 30, 2017 (GMT -0600)
Meadow Lake

Weather History for KFLY - December, 2012

Change the Weather History Date:

Friday, December 7, 2012

  Actual Average (KCOS) Record (KCOS)
Temperature  
Mean Temperature 34 °F -  
Max Temperature 50 °F 44 °F 68 °F (1906)
Min Temperature 17 °F 20 °F -15 °F (2005)
Degree Days  
Heating Degree Days 32    
Moisture  
Dew Point 16 °F    
Average Humidity 56    
Maximum Humidity 85    
Minimum Humidity 24    
Precipitation  
Precipitation 0.00 in - - ()
Sea Level Pressure  
Sea Level Pressure 29.88 in    
Wind  
Wind Speed 6 mph (NNW)    
Max Wind Speed 18 mph    
Max Gust Speed 25 mph    
Visibility 10 miles    
Events      
Averages and records for this station are not official NWS values.
T = Trace of Precipitation, MM = Missing Value Source: NWS Daily Summary

Daily Weather History Graph

Daily Weather History Graph

Search for Another Location

Airport or City:

Trip Planner

Search our weather history database for the weather conditions in past years. The results will help you decide how hot, cold, wet, or windy it might be!

Date:

Astronomy

Dec. 07, 2012 Rise Set
Actual Time 7:04 AM MST 4:35 PM MST
Civil Twilight 6:34 AM MST 5:05 PM MST
Nautical Twilight 6:00 AM MST 5:38 PM MST
Astronomical Twilight 5:28 AM MST 6:11 PM MST
Moon 12:28 AM MST (12/7) 12:31 PM MST (12/7)
Length of Visible Light 10h 31m
Length of Day
9h 31m
Last Quarter, 38% of the Moon is Illuminated
Dec 7
Last Quarter
Dec 13
New
Dec 19
First Quarter
Dec 28
Full
Jan 4
Last Quarter

Hourly Weather History & Observations

Time (MST) Temp. Windchill Dew Point Humidity Pressure Visibility Wind Dir Wind Speed Gust Speed Precip Events Conditions
12:15 AM 24.1 °F 18.2 °F 17.6 °F 76% 29.90 in 10.0 mi SSW 4.6 mph - N/A   Clear
12:35 AM 24.1 °F 19.7 °F 18.1 °F 78% 29.90 in 10.0 mi SW 3.5 mph - N/A   Clear
12:55 AM 22.5 °F - 16.3 °F 77% 29.89 in 10.0 mi Calm Calm - N/A   Clear
1:15 AM 20.3 °F - 15.1 °F 80% 29.87 in 10.0 mi Calm Calm - N/A   Clear
1:35 AM 19.8 °F - 14.2 °F 79% 29.88 in 10.0 mi Calm Calm - N/A   Clear
1:55 AM 18.7 °F 13.5 °F 14.0 °F 82% 29.87 in 10.0 mi NNW 3.5 mph - N/A   Clear
2:15 AM 18.9 °F 12.1 °F 14.5 °F 83% 29.87 in 10.0 mi NW 4.6 mph - N/A   Clear
2:35 AM 18.0 °F 12.7 °F 13.5 °F 83% 29.87 in 10.0 mi West 3.5 mph - N/A   Clear
2:55 AM 17.4 °F 12.1 °F 13.1 °F 83% 29.86 in 10.0 mi WNW 3.5 mph - N/A   Clear
3:15 AM 18.7 °F 13.5 °F 13.3 °F 79% 29.86 in 10.0 mi WNW 3.5 mph - N/A   Clear
3:35 AM 19.0 °F 11.1 °F 14.2 °F 81% 29.85 in 10.0 mi WNW 5.8 mph - N/A   Clear
3:55 AM 18.9 °F - 15.1 °F 85% 29.84 in 10.0 mi Calm Calm - N/A   Clear
4:15 AM 21.0 °F 14.6 °F 14.9 °F 77% 29.83 in 10.0 mi NW 4.6 mph - N/A   Clear
4:35 AM 22.6 °F 18.0 °F 17.4 °F 80% 29.83 in 10.0 mi West 3.5 mph - N/A   Clear
4:55 AM 23.2 °F 17.2 °F 18.0 °F 80% 29.83 in 10.0 mi NW 4.6 mph - N/A   Clear
5:15 AM 28.9 °F 21.9 °F 20.5 °F 71% 29.83 in 10.0 mi NNW 6.9 mph - N/A   Clear
5:35 AM 32.4 °F 25.3 °F 20.5 °F 62% 29.84 in 10.0 mi NW 8.1 mph - N/A   Clear
5:55 AM 34.0 °F 26.0 °F 19.4 °F 55% 29.84 in 10.0 mi WNW 10.4 mph - N/A   Clear
6:15 AM 34.5 °F 26.2 °F 17.8 °F 50% 29.84 in 10.0 mi WNW 11.5 mph - N/A   Clear
6:35 AM 33.4 °F 27.3 °F 17.1 °F 51% 29.85 in 10.0 mi NW 6.9 mph - N/A   Clear
6:55 AM 30.0 °F 22.4 °F 15.6 °F 55% 29.86 in 10.0 mi NW 8.1 mph - N/A   Clear
7:15 AM 33.6 °F 26.8 °F 15.4 °F 47% 29.86 in 10.0 mi West 8.1 mph - N/A   Clear
7:35 AM 31.8 °F 24.6 °F 15.3 °F 50% 29.86 in 10.0 mi NW 8.1 mph - N/A   Clear
7:55 AM 32.5 °F 25.5 °F 16.5 °F 52% 29.86 in 10.0 mi WNW 8.1 mph - N/A   Clear
8:15 AM 38.7 °F 31.4 °F 16.0 °F 40% 29.86 in 10.0 mi West 11.5 mph 18.4 mph N/A   Clear
8:35 AM 38.8 °F 32.6 °F 15.6 °F 39% 29.87 in 10.0 mi WNW 9.2 mph - N/A   Clear
8:55 AM 41.9 °F 37.5 °F 16.3 °F 36% 29.88 in 10.0 mi NNW 6.9 mph - N/A   Clear
9:15 AM 44.4 °F 39.5 °F 15.3 °F 31% 29.88 in 10.0 mi WNW 9.2 mph - N/A   Clear
9:35 AM 46.4 °F 41.5 °F 14.7 °F 28% 29.88 in 10.0 mi WNW 10.4 mph - N/A   Clear
9:55 AM 46.8 °F - 14.4 °F 27% 29.88 in 10.0 mi North 6.9 mph - N/A   Clear
10:15 AM 47.3 °F - 13.6 °F 26% 29.88 in 10.0 mi NE 4.6 mph - N/A   Clear
10:35 AM 48.4 °F - 13.6 °F 25% 29.88 in 10.0 mi SE 3.5 mph - N/A   Clear
10:55 AM 48.4 °F - 14.0 °F 25% 29.88 in 10.0 mi ENE 4.6 mph - N/A   Clear
11:15 AM 49.5 °F - 14.0 °F 24% 29.87 in 10.0 mi NNE 4.6 mph - N/A   Clear
11:35 AM 49.6 °F - 14.7 °F 25% 29.86 in 10.0 mi NE 6.9 mph - N/A   Clear
11:55 AM 47.7 °F - 15.4 °F 28% 29.85 in 10.0 mi NE 8.1 mph - N/A   Scattered Clouds
12:15 PM 47.5 °F - 15.1 °F 27% 29.85 in 10.0 mi NE 10.4 mph - N/A   Scattered Clouds
12:35 PM 49.5 °F - 14.9 °F 25% 29.85 in 10.0 mi ENE 6.9 mph - N/A   Scattered Clouds
12:55 PM 50.2 °F - 14.7 °F 24% 29.84 in 10.0 mi East 6.9 mph - N/A   Scattered Clouds
1:15 PM 50.2 °F - 14.9 °F 25% 29.83 in 10.0 mi NNE 4.6 mph - N/A   Clear
1:35 PM 49.5 °F - 14.5 °F 25% 29.82 in 10.0 mi SSE 10.4 mph 16.1 mph N/A   Clear
1:55 PM 49.5 °F - 14.5 °F 25% 29.83 in 10.0 mi East 10.4 mph 21.9 mph N/A   Clear
2:15 PM 49.8 °F - 14.5 °F 25% 29.83 in 10.0 mi SSE 5.8 mph - N/A   Clear
2:35 PM 50.0 °F - 14.4 °F 24% 29.83 in 10.0 mi SSE 10.4 mph - N/A   Clear
2:52 PM 49.3 °F - 14.0 °F 24% 29.83 in 10.0 mi SSE 9.2 mph - N/A   Clear
3:11 PM 48.4 °F - 14.0 °F 25% 29.83 in 10.0 mi SSE 10.4 mph 18.4 mph N/A   Clear
3:32 PM 47.5 °F - 14.0 °F 26% 29.84 in 10.0 mi SE 11.5 mph 19.6 mph N/A   Clear
3:52 PM 43.3 °F 35.2 °F 19.8 °F 39% 29.86 in 10.0 mi ENE 18.4 mph 25.3 mph N/A   Scattered Clouds
4:12 PM 37.9 °F 30.9 °F 20.3 °F 49% 29.88 in 10.0 mi ENE 10.4 mph 18.4 mph N/A   Scattered Clouds
4:32 PM 34.9 °F 29.0 °F 19.9 °F 55% 29.88 in 10.0 mi ENE 6.9 mph - N/A   Clear
4:52 PM 32.2 °F 26.7 °F 19.4 °F 59% 29.89 in 10.0 mi NE 5.8 mph - N/A   Clear
5:13 PM 31.8 °F 26.2 °F 19.4 °F 60% 29.90 in 10.0 mi NE 5.8 mph - N/A   Clear
5:32 PM 30.7 °F 27.3 °F 18.9 °F 61% 29.92 in 10.0 mi NNE 3.5 mph - N/A   Scattered Clouds
6:12 PM 28.4 °F 23.3 °F 18.3 °F 66% 29.93 in 10.0 mi NE 4.6 mph - N/A   Clear
6:33 PM 27.3 °F 20.9 °F 17.6 °F 67% 29.93 in 10.0 mi East 5.8 mph - N/A   Clear
6:52 PM 25.5 °F 17.8 °F 16.9 °F 70% 29.94 in 10.0 mi East 6.9 mph - N/A   Clear
7:32 PM 27.5 °F - 18.7 °F 69% 29.95 in 10.0 mi Calm Calm - N/A   Clear
7:52 PM 27.3 °F - 18.5 °F 69% 29.95 in 10.0 mi Calm Calm - N/A   Clear
8:12 PM 25.5 °F 18.7 °F 17.6 °F 72% 29.95 in 10.0 mi SSE 5.8 mph - N/A   Clear
8:31 PM 23.4 °F 16.2 °F 17.1 °F 77% 29.95 in 10.0 mi South 5.8 mph - N/A   Clear
8:50 PM 23.5 °F 16.4 °F 16.7 °F 75% 29.95 in 10.0 mi South 5.8 mph - N/A   Clear
9:11 PM 23.0 °F 14.7 °F 16.9 °F 77% 29.95 in 10.0 mi South 6.9 mph - N/A   Clear
9:31 PM 23.2 °F 15.0 °F 16.9 °F 77% 29.95 in 10.0 mi South 6.9 mph - N/A   Clear
9:52 PM 23.0 °F 13.9 °F 16.7 °F 77% 29.95 in 10.0 mi South 8.1 mph - N/A   Clear
10:11 PM 22.1 °F 12.8 °F 16.5 °F 79% 29.95 in 10.0 mi South 8.1 mph - N/A   Clear
10:32 PM 22.1 °F 14.7 °F 16.3 °F 79% 29.95 in 10.0 mi South 5.8 mph - N/A   Clear
10:52 PM 22.1 °F 13.7 °F 16.2 °F 78% 29.95 in 10.0 mi SSW 6.9 mph - N/A   Clear
11:11 PM 23.7 °F 12.6 °F 17.2 °F 76% 29.95 in 10.0 mi SSW 11.5 mph - N/A   Clear
11:32 PM 22.8 °F 15.5 °F 16.5 °F 77% 29.94 in 10.0 mi South 5.8 mph - N/A   Mostly Cloudy
11:52 PM 22.5 °F 14.1 °F 16.7 °F 79% 29.94 in 10.0 mi South 6.9 mph - N/A   Mostly Cloudy